Weather History for EGJJ - March, 2013

Change the Weather History Date:

Sunday, March 10, 2013

  Actual Average Record
Temperature  
Mean Temperature 40 °F -  
Max Temperature 44 °F 50 °F 60 °F (1997)
Min Temperature 37 °F 42 °F 32 °F (2004)
Degree Days  
Heating Degree Days 24    
Moisture  
Dew Point 40 °F    
Average Humidity 92    
Maximum Humidity 100    
Minimum Humidity 79    
Precipitation  
Precipitation 0.00 in - - ()
Sea Level Pressure  
Sea Level Pressure 29.52 in    
Wind  
Wind Speed 18 mph ()    
Max Wind Speed 33 mph    
Max Gust Speed 45 mph    
Visibility 4.4 miles    
Events Fog , Rain    
Averages and records for this station are not official NWS values.
T = Trace of Precipitation, MM = Missing Value Source: Averaged Metar Reports

Daily Weather History Graph

Daily Weather History Graph

Search for Another Location

Airport or City:

Trip Planner

Search our weather history database for the weather conditions in past years. The results will help you decide how hot, cold, wet, or windy it might be!

Date:

Astronomy

Mar. 10, 2013 Rise Set
Actual Time 6:32 AM GMT 6:06 PM GMT
Civil Twilight 6:00 AM GMT 6:37 PM GMT
Nautical Twilight 5:24 AM GMT 7:14 PM GMT
Astronomical Twilight 4:46 AM GMT 7:52 PM GMT
Moon 5:29 AM GMT (3/10) 4:55 PM GMT (3/10)
Length of Visible Light 12h 36m
Length of Day
11h 33m
Waning Crescent, 2% of the Moon is Illuminated
Mar 10
Waning Crescent
Mar 11
New
Mar 19
First Quarter
Mar 27
Full
Apr 3
Last Quarter

Hourly Weather History & Observations

Time (GMT) Temp. Windchill Dew Point Humidity Pressure Visibility Wind Dir Wind Speed Gust Speed Precip Events Conditions
12:00 AM 49 °F - 45 °F 83% 29.58 in 16 mi ESE 10.4 mph - - Rain Light Rain Showers
3:00 AM 45 °F - 44 °F 95% 29.57 in 17 mi East 9.2 mph - -   Partly Cloudy
3:50 AM 44.6 °F 38.8 °F 42.8 °F 93% 29.53 in 6.2 mi East 11.5 mph - N/A   Mostly Cloudy
4:20 AM 42.8 °F 35.8 °F 42.8 °F 100% 29.53 in 0.5 mi East 13.8 mph - N/A Fog Patches of Fog
4:50 AM 42.8 °F 35.4 °F 42.8 °F 100% 29.53 in 0.2 mi ENE 15.0 mph - N/A Fog Fog
5:20 AM 42.8 °F 35.1 °F 42.8 °F 100% 29.53 in 0.2 mi ENE 16.1 mph - N/A Fog Fog
5:50 AM 42.8 °F 34.0 °F 42.8 °F 100% 29.53 in 0.3 mi East 20.7 mph - N/A Fog Light Drizzle
6:00 AM 43 °F - 43 °F 100% 29.55 in 0 mi East 15.0 mph - - Rain Light Drizzle
6:20 AM 42.8 °F 34.3 °F 42.8 °F 100% 29.53 in 0.3 mi East 19.6 mph - N/A Fog Fog
6:50 AM 42.8 °F 34.3 °F 42.8 °F 100% 29.53 in 0.2 mi East 19.6 mph - N/A Fog Fog
7:20 AM 42.8 °F 34.3 °F 42.8 °F 100% 29.53 in 0.5 mi ENE 19.6 mph 36.8 mph N/A Fog Patches of Fog
7:50 AM 42.8 °F 33.8 °F 42.8 °F 100% 29.53 in 0.5 mi East 21.9 mph - N/A Fog Patches of Fog
8:20 AM 42.8 °F 32.7 °F 42.8 °F 100% 29.53 in 0.7 mi East 27.6 mph - N/A   Mostly Cloudy
8:50 AM 42.8 °F 33.8 °F 41.0 °F 93% 29.53 in 0.7 mi East 21.9 mph - N/A   Mostly Cloudy
9:00 AM 42 °F - 42 °F 99% 29.55 in 1 mi ENE 19.6 mph - - Fog Light Fog
9:20 AM 42.8 °F 34.3 °F 41.0 °F 93% 29.53 in 1.2 mi East 19.6 mph - N/A   Mostly Cloudy
9:50 AM 41.0 °F 31.4 °F 41.0 °F 100% 29.53 in 2.5 mi East 21.9 mph - N/A   Mostly Cloudy
10:20 AM 42.8 °F 33.8 °F 41.0 °F 93% 29.53 in 2.5 mi ENE 21.9 mph - N/A   Mostly Cloudy
10:50 AM 42.8 °F 33.8 °F 41.0 °F 93% 29.53 in 3.1 mi ENE 21.9 mph - N/A   Mostly Cloudy
11:20 AM 42.8 °F 34.8 °F 41.0 °F 93% 29.53 in 3.7 mi East 17.3 mph 29.9 mph N/A   Mostly Cloudy
11:50 AM 42.8 °F 34.0 °F 41.0 °F 93% 29.53 in 4.3 mi East 20.7 mph - N/A   Mostly Cloudy
12:00 PM 43 °F - 40 °F 86% 29.55 in 4 mi ENE 18.4 mph - -   Mist
12:20 PM 42.8 °F 34.0 °F 41.0 °F 93% 29.53 in 5.0 mi East 20.7 mph 35.7 mph N/A   Mostly Cloudy
12:50 PM 44.6 °F 35.1 °F 41.0 °F 87% 29.50 in 6.2 mi East 27.6 mph - N/A   Mostly Cloudy
1:20 PM 42.8 °F 32.9 °F 39.2 °F 87% 29.50 in 6.2 mi East 26.5 mph - N/A   Mostly Cloudy
1:50 PM 42.8 °F 33.5 °F 39.2 °F 87% 29.50 in 6.2 mi ENE 23.0 mph - N/A   Mostly Cloudy
2:20 PM 42.8 °F 33.1 °F 39.2 °F 87% 29.50 in 6.2 mi East 25.3 mph - N/A   Scattered Clouds
2:50 PM 42.8 °F 32.9 °F 39.2 °F 87% 29.50 in 6.2 mi ENE 26.5 mph - N/A   Scattered Clouds
3:00 PM 43 °F - 39 °F 79% 29.52 in 11 mi ENE 23.0 mph - -   Mostly Cloudy
3:20 PM 42.8 °F 33.3 °F 37.4 °F 81% 29.50 in 6.2 mi ENE 24.2 mph - N/A   Scattered Clouds
3:50 PM 41.0 °F 31.9 °F 37.4 °F 87% 29.50 in 6.2 mi ENE 19.6 mph 36.8 mph N/A   Mostly Cloudy
4:20 PM 41.0 °F 29.8 °F 37.4 °F 87% 29.50 in 6.2 mi East 29.9 mph - N/A Rain Light Rain
4:50 PM 41.0 °F 30.5 °F 37.4 °F 87% 29.50 in 6.2 mi East 26.5 mph 38.0 mph N/A   Mostly Cloudy
5:20 PM 41.0 °F 30.0 °F 37.4 °F 87% 29.50 in 6.2 mi East 28.8 mph - N/A Rain Light Rain
5:50 PM 39.2 °F 28.3 °F 35.6 °F 87% 29.50 in 5.0 mi ENE 25.3 mph - N/A Rain Light Rain
6:00 PM 40 °F - 37 °F 83% 29.53 in 5 mi ENE 25.3 mph - - Rain Light Rain
6:20 PM 39.2 °F 28.5 °F 37.4 °F 93% 29.50 in 4.3 mi ENE 24.2 mph - N/A Rain Light Rain
6:50 PM 39.2 °F 28.5 °F 35.6 °F 87% 29.53 in 4.3 mi East 24.2 mph - N/A Rain Rain
7:20 PM 39.2 °F 27.6 °F 35.6 °F 87% 29.53 in 2.5 mi ENE 28.8 mph - N/A Rain Rain
7:50 PM 37.4 °F 25.2 °F 35.6 °F 93% 29.50 in 2.5 mi ENE 28.8 mph - N/A Rain Light Rain
8:20 PM 37.4 °F 25.4 °F 35.6 °F 93% 29.50 in 5.0 mi East 27.6 mph 43.7 mph N/A Rain Light Rain
8:50 PM 39.2 °F 27.2 °F 35.6 °F 87% 29.50 in 6.2 mi ENE 31.1 mph - N/A   Scattered Clouds
9:00 PM 38 °F - 35 °F 86% 29.52 in 6 mi ENE 28.8 mph - - Rain Light Rain
9:20 PM 37.4 °F 25.0 °F 35.6 °F 93% 29.50 in 6.2 mi ENE 29.9 mph 44.9 mph N/A   Mostly Cloudy
9:50 PM 37.4 °F 24.4 °F 33.8 °F 87% 29.50 in 6.2 mi ENE 33.4 mph 44.9 mph N/A   Scattered Clouds
10:20 PM 37.4 °F 25.9 °F 33.8 °F 87% 29.50 in 6.2 mi ENE 25.3 mph 42.6 mph N/A Rain Light Rain